Time,TemperatureF,DewpointF,PressureIn,WindDirection,WindDirectionDegrees,WindSpeedMPH,WindSpeedGustMPH,Humidity,HourlyPrecipIn,Conditions,Clouds,dailyrainin,SolarRadiationWatts/m^2,SoftwareType,DateUTC
2013-09-01 00:00:00,59.9,40.7,29.75,NW,314,3.0,3.0,49,0.00,,,0.00,0,Wunderground v.1.15,2013-09-01 06:00:00,
2013-09-01 00:10:00,59.6,40.9,29.75,SW,233,2.0,4.0,50,0.00,,,0.00,0,Wunderground v.1.15,2013-09-01 06:10:00,
2013-09-01 00:15:00,59.4,40.7,29.75,SW,233,3.0,4.0,50,0.00,,,0.00,0,Wunderground v.1.15,2013-09-01 06:15:00,
2013-09-01 00:20:00,59.3,40.7,29.75,WSW,249,2.0,4.0,50,0.00,,,0.00,0,Wunderground v.1.15,2013-09-01 06:20:00,
2013-09-01 00:25:00,59.3,40.7,29.75,WSW,252,2.0,4.0,50,0.00,,,0.00,0,Wunderground v.1.15,2013-09-01 06:25:00,
2013-09-01 00:30:00,59.2,40.6,29.75,WSW,252,3.0,3.0,50,0.00,,,0.00,0,Wunderground v.1.15,2013-09-01 06:30:00,
2013-09-01 00:40:00,59.0,39.9,29.75,WSW,252,3.0,3.0,49,0.00,,,0.00,0,Wunderground v.1.15,2013-09-01 06:40:00,
2013-09-01 00:50:00,59.0,39.9,29.76,WSW,252,2.0,2.0,49,0.00,,,0.00,0,Wunderground v.1.15,2013-09-01 06:50:00,
2013-09-01 00:55:00,59.0,39.9,29.75,WSW,252,1.0,2.0,49,0.00,,,0.00,0,Wunderground v.1.15,2013-09-01 06:55:00,
2013-09-01 01:00:00,59.0,39.9,29.76,WSW,252,1.0,2.0,49,0.00,,,0.00,0,Wunderground v.1.15,2013-09-01 07:00:00,
2013-09-01 01:05:00,58.8,40.2,29.75,WSW,252,2.0,2.0,50,0.00,,,0.00,0,Wunderground v.1.15,2013-09-01 07:05:00,
2013-09-01 01:10:00,58.6,40.0,29.76,WSW,252,2.0,2.0,50,0.00,,,0.00,0,Wunderground v.1.15,2013-09-01 07:10:00,
2013-09-01 01:15:00,58.5,39.9,29.76,WSW,252,2.0,2.0,50,0.00,,,0.00,0,Wunderground v.1.15,2013-09-01 07:15:00,
2013-09-01 01:25:00,58.2,39.6,29.76,WSW,252,0.0,2.0,50,0.00,,,0.00,0,Wunderground v.1.15,2013-09-01 07:25:00,
2013-09-01 01:30:00,58.0,39.5,29.76,WSW,252,1.0,1.0,50,0.00,,,0.00,0,Wunderground v.1.15,2013-09-01 07:30:00,
2013-09-01 01:35:00,57.8,39.3,29.76,WSW,252,1.0,1.0,50,0.00,,,0.00,0,Wunderground v.1.15,2013-09-01 07:35:00,
2013-09-01 01:40:00,57.7,39.7,29.76,WSW,252,1.0,1.0,51,0.00,,,0.00,0,Wunderground v.1.15,2013-09-01 07:40:00,
2013-09-01 01:45:00,57.5,39.5,29.76,WSW,252,1.0,1.0,51,0.00,,,0.00,0,Wunderground v.1.15,2013-09-01 07:45:00,
2013-09-01 01:55:00,57.2,39.2,29.76,WSW,252,1.0,2.0,51,0.00,,,0.00,0,Wunderground v.1.15,2013-09-01 07:55:00,
2013-09-01 02:00:00,57.0,39.5,29.76,WSW,252,1.0,1.0,52,0.00,,,0.00,0,Wunderground v.1.15,2013-09-01 08:00:00,
2013-09-01 02:10:00,56.8,39.4,29.76,WSW,252,1.0,1.0,52,0.00,,,0.00,0,Wunderground v.1.15,2013-09-01 08:10:00,
2013-09-01 02:15:00,56.8,39.4,29.76,WSW,252,1.0,2.0,52,0.00,,,0.00,0,Wunderground v.1.15,2013-09-01 08:15:00,
2013-09-01 02:20:00,56.6,39.7,29.75,WSW,252,2.0,2.0,53,0.00,,,0.00,0,Wunderground v.1.15,2013-09-01 08:20:00,
2013-09-01 02:25:00,56.4,39.5,29.76,WSW,252,2.0,2.0,53,0.00,,,0.00,0,Wunderground v.1.15,2013-09-01 08:25:00,
2013-09-01 02:35:00,56.2,39.3,29.76,WSW,252,0.0,1.0,53,0.00,,,0.00,0,Wunderground v.1.15,2013-09-01 08:35:00,
2013-09-01 02:40:00,56.0,39.6,29.76,WSW,252,1.0,2.0,54,0.00,,,0.00,0,Wunderground v.1.15,2013-09-01 08:40:00,
2013-09-01 02:50:00,55.6,39.2,29.76,WSW,252,1.0,1.0,54,0.00,,,0.00,0,Wunderground v.1.15,2013-09-01 08:50:00,
2013-09-01 02:55:00,55.4,39.5,29.75,WSW,252,0.0,1.0,55,0.00,,,0.00,0,Wunderground v.1.15,2013-09-01 08:55:00,
2013-09-01 03:00:00,55.1,38.7,29.75,WSW,252,0.0,1.0,54,0.00,,,0.00,0,Wunderground v.1.15,2013-09-01 09:00:00,
2013-09-01 03:10:00,54.8,38.9,29.75,WSW,252,1.0,2.0,55,0.00,,,0.00,0,Wunderground v.1.15,2013-09-01 09:10:00,
2013-09-01 03:15:00,54.6,38.7,29.75,WSW,252,1.0,2.0,55,0.00,,,0.00,0,Wunderground v.1.15,2013-09-01 09:15:00,
2013-09-01 03:25:00,54.3,38.9,29.75,WSW,252,1.0,1.0,56,0.00,,,0.00,0,Wunderground v.1.15,2013-09-01 09:25:00,
2013-09-01 03:30:00,54.2,38.8,29.75,WSW,252,0.0,1.0,56,0.00,,,0.00,0,Wunderground v.1.15,2013-09-01 09:30:00,
2013-09-01 03:40:00,54.0,38.6,29.75,WSW,252,0.0,0.0,56,0.00,,,0.00,0,Wunderground v.1.15,2013-09-01 09:40:00,
2013-09-01 03:45:00,53.9,38.6,29.75,WSW,252,0.0,0.0,56,0.00,,,0.00,0,Wunderground v.1.15,2013-09-01 09:45:00,
2013-09-01 03:55:00,53.5,39.1,29.75,WSW,252,1.0,1.0,58,0.00,,,0.00,0,Wunderground v.1.15,2013-09-01 09:55:00,
2013-09-01 04:00:00,53.4,39.0,29.75,WSW,252,0.0,0.0,58,0.00,,,0.00,0,Wunderground v.1.15,2013-09-01 10:00:00,
2013-09-01 04:10:00,53.1,39.1,29.75,WSW,252,1.0,1.0,59,0.00,,,0.00,0,Wunderground v.1.15,2013-09-01 10:10:00,
2013-09-01 04:20:00,52.9,39.4,29.75,WSW,252,0.0,0.0,60,0.00,,,0.00,0,Wunderground v.1.15,2013-09-01 10:20:00,
2013-09-01 04:30:00,52.7,39.2,29.75,WSW,252,0.0,0.0,60,0.00,,,0.00,0,Wunderground v.1.15,2013-09-01 10:30:00,
2013-09-01 04:35:00,52.6,39.1,29.75,WSW,252,0.0,0.0,60,0.00,,,0.00,0,Wunderground v.1.15,2013-09-01 10:35:00,
2013-09-01 04:40:00,52.5,39.0,29.75,WSW,252,0.0,0.0,60,0.00,,,0.00,0,Wunderground v.1.15,2013-09-01 10:40:00,
2013-09-01 04:45:00,52.4,38.9,29.75,WSW,252,0.0,0.0,60,0.00,,,0.00,0,Wunderground v.1.15,2013-09-01 10:45:00,
2013-09-01 04:55:00,52.2,39.6,29.75,WSW,252,0.0,0.0,62,0.00,,,0.00,0,Wunderground v.1.15,2013-09-01 10:55:00,
2013-09-01 05:00:00,52.1,39.1,29.75,WSW,252,0.0,0.0,61,0.00,,,0.00,0,Wunderground v.1.15,2013-09-01 11:00:00,
2013-09-01 05:10:00,51.8,38.8,29.75,WSW,252,0.0,0.0,61,0.00,,,0.00,0,Wunderground v.1.15,2013-09-01 11:10:00,
2013-09-01 05:20:00,51.5,38.9,29.75,WSW,252,0.0,0.0,62,0.00,,,0.00,0,Wunderground v.1.15,2013-09-01 11:20:00,
2013-09-01 05:25:00,51.4,38.8,29.75,WSW,252,0.0,0.0,62,0.00,,,0.00,0,Wunderground v.1.15,2013-09-01 11:25:00,
2013-09-01 05:35:00,51.2,38.2,29.75,WSW,252,0.0,0.0,61,0.00,,,0.00,0,Wunderground v.1.15,2013-09-01 11:35:00,
2013-09-01 05:45:00,51.0,38.4,29.75,WSW,252,2.0,2.0,62,0.00,,,0.00,0,Wunderground v.1.15,2013-09-01 11:45:00,
2013-09-01 05:55:00,50.9,38.3,29.75,WSW,252,1.0,1.0,62,0.00,,,0.00,0,Wunderground v.1.15,2013-09-01 11:55:00,
2013-09-01 06:05:00,50.9,38.3,29.75,WSW,252,0.0,0.0,62,0.00,,,0.00,0,Wunderground v.1.15,2013-09-01 12:05:00,
2013-09-01 06:10:00,50.9,38.7,29.75,WSW,252,0.0,0.0,63,0.00,,,0.00,0,Wunderground v.1.15,2013-09-01 12:10:00,
2013-09-01 06:15:00,50.9,38.7,29.75,WSW,252,0.0,0.0,63,0.00,,,0.00,0,Wunderground v.1.15,2013-09-01 12:15:00,
2013-09-01 06:20:00,50.9,38.3,29.75,WSW,252,1.0,1.0,62,0.00,,,0.00,0,Wunderground v.1.15,2013-09-01 12:20:00,
2013-09-01 06:25:00,50.9,38.3,29.75,WSW,252,1.0,1.0,62,0.00,,,0.00,0,Wunderground v.1.15,2013-09-01 12:25:00,
2013-09-01 06:30:00,50.9,38.7,29.75,WSW,252,1.0,1.0,63,0.00,,,0.00,0,Wunderground v.1.15,2013-09-01 12:30:00,
2013-09-01 06:40:00,50.8,38.2,29.76,WSW,252,0.0,0.0,62,0.00,,,0.00,0,Wunderground v.1.15,2013-09-01 12:40:00,
2013-09-01 06:50:00,50.7,38.6,29.75,WSW,252,0.0,0.0,63,0.00,,,0.00,7,Wunderground v.1.15,2013-09-01 12:50:00,
2013-09-01 06:55:00,50.7,38.6,29.76,WSW,252,0.0,0.0,63,0.00,,,0.00,11,Wunderground v.1.15,2013-09-01 12:55:00,
2013-09-01 07:00:00,50.6,38.5,29.75,WSW,252,0.0,0.0,63,0.00,,,0.00,12,Wunderground v.1.15,2013-09-01 13:00:00,
2013-09-01 07:10:00,50.6,38.5,29.76,WSW,252,0.0,0.0,63,0.00,,,0.00,16,Wunderground v.1.15,2013-09-01 13:10:00,
2013-09-01 07:15:00,50.6,38.5,29.76,WSW,252,0.0,0.0,63,0.00,,,0.00,18,Wunderground v.1.15,2013-09-01 13:15:00,
2013-09-01 07:20:00,50.6,39.3,29.76,WSW,252,0.0,0.0,65,0.00,,,0.00,19,Wunderground v.1.15,2013-09-01 13:20:00,
2013-09-01 07:30:00,50.6,39.7,29.76,WSW,252,0.0,0.0,66,0.00,,,0.00,23,Wunderground v.1.15,2013-09-01 13:30:00,
2013-09-01 07:35:00,50.6,40.4,29.76,WSW,252,0.0,1.0,68,0.00,,,0.00,25,Wunderground v.1.15,2013-09-01 13:35:00,
2013-09-01 07:40:00,50.6,40.4,29.76,WSW,252,0.0,0.0,68,0.00,,,0.00,25,Wunderground v.1.15,2013-09-01 13:40:00,
2013-09-01 07:45:00,50.6,40.0,29.76,WSW,252,0.0,0.0,67,0.00,,,0.00,26,Wunderground v.1.15,2013-09-01 13:45:00,
2013-09-01 07:55:00,50.8,41.0,29.76,WSW,252,0.0,0.0,69,0.00,,,0.00,30,Wunderground v.1.15,2013-09-01 13:55:00,
2013-09-01 08:00:00,51.0,41.2,29.76,WSW,252,0.0,0.0,69,0.00,,,0.00,32,Wunderground v.1.15,2013-09-01 14:00:00,
2013-09-01 08:10:00,51.2,41.0,29.76,WSW,252,0.0,0.0,68,0.00,,,0.00,33,Wunderground v.1.15,2013-09-01 14:10:00,
2013-09-01 08:15:00,51.8,41.9,29.76,WSW,252,1.0,1.0,69,0.00,,,0.00,35,Wunderground v.1.15,2013-09-01 14:15:00,
2013-09-01 08:20:00,52.1,41.9,29.76,WSW,252,1.0,1.0,68,0.00,,,0.00,35,Wunderground v.1.15,2013-09-01 14:20:00,
2013-09-01 08:30:00,52.8,41.7,29.75,WSW,252,1.0,2.0,66,0.00,,,0.00,37,Wunderground v.1.15,2013-09-01 14:30:00,
2013-09-01 08:35:00,53.1,42.0,29.75,WSW,252,1.0,2.0,66,0.00,,,0.00,39,Wunderground v.1.15,2013-09-01 14:35:00,
2013-09-01 08:40:00,53.4,41.9,29.75,WSW,252,2.0,2.0,65,0.00,,,0.00,309,Wunderground v.1.15,2013-09-01 14:40:00,
2013-09-01 08:45:00,53.5,41.6,29.75,WSW,252,1.0,2.0,64,0.00,,,0.00,325,Wunderground v.1.15,2013-09-01 14:45:00,
2013-09-01 08:50:00,53.7,42.2,29.75,WSW,252,0.0,0.0,65,0.00,,,0.00,345,Wunderground v.1.15,2013-09-01 14:50:00,
2013-09-01 08:55:00,54.2,42.7,29.75,WSW,252,0.0,1.0,65,0.00,,,0.00,359,Wunderground v.1.15,2013-09-01 14:55:00,
2013-09-01 09:00:00,55.0,42.6,29.75,WSW,252,0.0,3.0,63,0.00,,,0.00,374,Wunderground v.1.15,2013-09-01 15:00:00,
2013-09-01 09:05:00,55.9,43.1,29.75,WSW,252,1.0,3.0,62,0.00,,,0.00,394,Wunderground v.1.15,2013-09-01 15:05:00,
2013-09-01 09:10:00,56.7,43.0,29.75,WSW,252,2.0,2.0,60,0.00,,,0.00,415,Wunderground v.1.15,2013-09-01 15:10:00,
2013-09-01 09:20:00,57.8,43.1,29.75,WSW,252,1.0,3.0,58,0.00,,,0.00,446,Wunderground v.1.15,2013-09-01 15:20:00,
2013-09-01 09:25:00,58.5,43.3,29.75,WSW,252,1.0,3.0,57,0.00,,,0.00,455,Wunderground v.1.15,2013-09-01 15:25:00,
2013-09-01 09:35:00,59.2,43.5,29.74,WSW,252,1.0,2.0,56,0.00,,,0.00,475,Wunderground v.1.15,2013-09-01 15:35:00,
2013-09-01 09:45:00,60.8,44.5,29.74,WSW,252,2.0,3.0,55,0.00,,,0.00,508,Wunderground v.1.15,2013-09-01 15:45:00,
2013-09-01 09:50:00,61.2,43.9,29.74,WSW,252,2.0,2.0,53,0.00,,,0.00,526,Wunderground v.1.15,2013-09-01 15:50:00,
2013-09-01 10:00:00,62.0,43.7,29.74,WSW,252,1.0,1.0,51,0.00,,,0.00,552,Wunderground v.1.15,2013-09-01 16:00:00,
2013-09-01 10:10:00,63.2,43.7,29.74,WSW,251,2.0,2.0,49,0.00,,,0.00,578,Wunderground v.1.15,2013-09-01 16:10:00,
2013-09-01 10:15:00,63.8,44.3,29.74,WSW,253,2.0,3.0,49,0.00,,,0.00,589,Wunderground v.1.15,2013-09-01 16:15:00,
2013-09-01 10:20:00,64.4,43.7,29.74,WSW,253,1.0,1.0,47,0.00,,,0.00,601,Wunderground v.1.15,2013-09-01 16:20:00,
2013-09-01 10:25:00,64.9,42.5,29.74,NE,51,1.0,1.0,44,0.00,,,0.00,612,Wunderground v.1.15,2013-09-01 16:25:00,
2013-09-01 10:30:00,65.5,43.0,29.74,NE,37,1.0,1.0,44,0.00,,,0.00,624,Wunderground v.1.15,2013-09-01 16:30:00,
2013-09-01 10:35:00,66.2,43.6,29.74,ENE,73,1.0,2.0,44,0.00,,,0.00,638,Wunderground v.1.15,2013-09-01 16:35:00,
2013-09-01 10:40:00,66.9,43.0,29.74,NNW,334,1.0,1.0,42,0.00,,,0.00,638,Wunderground v.1.15,2013-09-01 16:40:00,
2013-09-01 10:50:00,67.9,42.7,29.74,SE,137,2.0,2.0,40,0.00,,,0.00,663,Wunderground v.1.15,2013-09-01 16:50:00,
2013-09-01 10:55:00,68.6,42.6,29.73,ENE,66,1.0,2.0,39,0.00,,,0.00,664,Wunderground v.1.15,2013-09-01 16:55:00,
2013-09-01 11:05:00,69.8,43.7,29.73,NE,40,2.0,3.0,39,0.00,,,0.00,677,Wunderground v.1.15,2013-09-01 17:05:00,
2013-09-01 11:10:00,70.2,43.4,29.73,NE,52,1.0,1.0,38,0.00,,,0.00,691,Wunderground v.1.15,2013-09-01 17:10:00,
2013-09-01 11:20:00,71.0,44.1,29.73,ENE,68,2.0,3.0,38,0.00,,,0.00,714,Wunderground v.1.15,2013-09-01 17:20:00,
2013-09-01 11:25:00,71.4,44.5,29.73,East,82,2.0,3.0,38,0.00,,,0.00,722,Wunderground v.1.15,2013-09-01 17:25:00,
2013-09-01 11:30:00,72.2,45.2,29.73,ENE,74,3.0,4.0,38,0.00,,,0.00,731,Wunderground v.1.15,2013-09-01 17:30:00,
2013-09-01 11:35:00,72.8,45.0,29.72,ENE,64,3.0,4.0,37,0.00,,,0.00,737,Wunderground v.1.15,2013-09-01 17:35:00,
2013-09-01 11:45:00,73.9,46.0,29.72,ESE,108,3.0,4.0,37,0.00,,,0.00,751,Wunderground v.1.15,2013-09-01 17:45:00,
2013-09-01 11:50:00,74.9,46.1,29.72,ENE,71,3.0,3.0,36,0.00,,,0.00,761,Wunderground v.1.15,2013-09-01 17:50:00,
2013-09-01 12:00:00,75.6,46.0,29.72,ENE,60,3.0,3.0,35,0.00,,,0.00,775,Wunderground v.1.15,2013-09-01 18:00:00,
2013-09-01 12:05:00,75.7,46.1,29.72,NE,51,3.0,3.0,35,0.00,,,0.00,780,Wunderground v.1.15,2013-09-01 18:05:00,
2013-09-01 12:10:00,76.2,45.8,29.72,East,90,2.0,2.0,34,0.00,,,0.00,788,Wunderground v.1.15,2013-09-01 18:10:00,
2013-09-01 12:15:00,76.6,46.1,29.72,ESE,102,2.0,5.0,34,0.00,,,0.00,791,Wunderground v.1.15,2013-09-01 18:15:00,
2013-09-01 12:25:00,77.7,45.5,29.71,NNW,343,3.0,3.0,32,0.00,,,0.00,798,Wunderground v.1.15,2013-09-01 18:25:00,
2013-09-01 12:30:00,78.1,46.6,29.71,NE,51,2.0,3.0,33,0.00,,,0.00,798,Wunderground v.1.15,2013-09-01 18:30:00,
2013-09-01 12:35:00,78.3,46.0,29.71,NE,37,2.0,4.0,32,0.00,,,0.00,802,Wunderground v.1.15,2013-09-01 18:35:00,
2013-09-01 12:45:00,79.1,45.9,29.70,ENE,75,2.0,2.0,31,0.00,,,0.00,809,Wunderground v.1.15,2013-09-01 18:45:00,
2013-09-01 12:50:00,79.6,46.3,29.70,NNW,345,2.0,2.0,31,0.00,,,0.00,810,Wunderground v.1.15,2013-09-01 18:50:00,
2013-09-01 12:55:00,80.2,46.8,29.70,East,95,2.0,2.0,31,0.00,,,0.00,807,Wunderground v.1.15,2013-09-01 18:55:00,
2013-09-01 13:00:00,80.5,47.1,29.70,NNE,24,2.0,2.0,31,0.00,,,0.00,807,Wunderground v.1.15,2013-09-01 19:00:00,
2013-09-01 13:05:00,80.9,46.6,29.70,NE,53,1.0,3.0,30,0.00,,,0.00,810,Wunderground v.1.15,2013-09-01 19:05:00,
2013-09-01 13:15:00,81.4,47.0,29.69,East,88,3.0,4.0,30,0.00,,,0.00,812,Wunderground v.1.15,2013-09-01 19:15:00,
2013-09-01 13:25:00,82.2,46.8,29.69,NNE,28,2.0,2.0,29,0.00,,,0.00,819,Wunderground v.1.15,2013-09-01 19:25:00,
2013-09-01 13:30:00,82.4,46.9,29.69,NE,43,1.0,2.0,29,0.00,,,0.00,816,Wunderground v.1.15,2013-09-01 19:30:00,
2013-09-01 13:40:00,83.4,47.8,29.69,NNW,345,2.0,2.0,29,0.00,,,0.00,809,Wunderground v.1.15,2013-09-01 19:40:00,
2013-09-01 13:45:00,84.1,46.5,29.69,ESE,107,2.0,2.0,27,0.00,,,0.00,807,Wunderground v.1.15,2013-09-01 19:45:00,
2013-09-01 13:50:00,84.7,47.0,29.69,SE,124,2.0,2.0,27,0.00,,,0.00,800,Wunderground v.1.15,2013-09-01 19:50:00,
2013-09-01 13:55:00,85.2,47.4,29.68,NW,323,2.0,2.0,27,0.00,,,0.00,789,Wunderground v.1.15,2013-09-01 19:55:00,
2013-09-01 14:00:00,85.7,46.9,29.68,North,351,2.0,2.0,26,0.00,,,0.00,788,Wunderground v.1.15,2013-09-01 20:00:00,
2013-09-01 14:10:00,86.2,47.3,29.68,NNE,14,1.0,2.0,26,0.00,,,0.00,784,Wunderground v.1.15,2013-09-01 20:10:00,
2013-09-01 14:15:00,86.4,47.5,29.68,NNE,12,2.0,2.0,26,0.00,,,0.00,779,Wunderground v.1.15,2013-09-01 20:15:00,
2013-09-01 14:25:00,86.6,46.6,29.67,SSW,201,2.0,3.0,25,0.00,,,0.00,763,Wunderground v.1.15,2013-09-01 20:25:00,
2013-09-01 14:30:00,86.7,47.7,29.67,NNE,12,2.0,2.0,26,0.00,,,0.00,765,Wunderground v.1.15,2013-09-01 20:30:00,
2013-09-01 14:35:00,87.0,48.0,29.67,SE,131,2.0,2.0,26,0.00,,,0.00,758,Wunderground v.1.15,2013-09-01 20:35:00,
2013-09-01 14:40:00,87.1,48.1,29.67,NNE,15,2.0,2.0,26,0.00,,,0.00,719,Wunderground v.1.15,2013-09-01 20:40:00,
2013-09-01 14:45:00,87.3,48.2,29.66,WNW,300,2.0,2.0,26,0.00,,,0.00,703,Wunderground v.1.15,2013-09-01 20:45:00,
2013-09-01 14:55:00,87.4,47.3,29.66,East,99,2.0,3.0,25,0.00,,,0.00,722,Wunderground v.1.15,2013-09-01 20:55:00,
2013-09-01 15:00:00,87.2,48.1,29.66,NE,45,2.0,3.0,26,0.00,,,0.00,650,Wunderground v.1.15,2013-09-01 21:00:00,
2013-09-01 15:10:00,87.2,48.1,29.66,SSE,162,2.0,2.0,26,0.00,,,0.00,628,Wunderground v.1.15,2013-09-01 21:10:00,
2013-09-01 15:15:00,87.3,48.2,29.66,ESE,106,1.0,4.0,26,0.00,,,0.00,657,Wunderground v.1.15,2013-09-01 21:15:00,
2013-09-01 15:20:00,87.6,47.4,29.66,East,91,2.0,3.0,25,0.00,,,0.00,673,Wunderground v.1.15,2013-09-01 21:20:00,
2013-09-01 15:30:00,88.4,48.1,29.65,East,87,2.0,2.0,25,0.00,,,0.00,666,Wunderground v.1.15,2013-09-01 21:30:00,
2013-09-01 15:35:00,88.7,48.4,29.66,NE,56,2.0,2.0,25,0.00,,,0.00,621,Wunderground v.1.15,2013-09-01 21:35:00,
2013-09-01 15:40:00,88.9,47.4,29.66,SE,124,2.0,2.0,24,0.00,,,0.00,617,Wunderground v.1.15,2013-09-01 21:40:00,
2013-09-01 15:50:00,89.2,46.6,29.65,NE,43,2.0,2.0,23,0.00,,,0.00,557,Wunderground v.1.15,2013-09-01 21:50:00,
2013-09-01 15:55:00,89.3,46.6,29.65,East,101,1.0,3.0,23,0.00,,,0.00,584,Wunderground v.1.15,2013-09-01 21:55:00,
2013-09-01 16:00:00,89.2,47.7,29.65,East,90,1.0,2.0,24,0.00,,,0.00,580,Wunderground v.1.15,2013-09-01 22:00:00,
2013-09-01 16:05:00,89.0,46.4,29.65,ENE,60,2.0,4.0,23,0.00,,,0.00,548,Wunderground v.1.15,2013-09-01 22:05:00,
2013-09-01 16:10:00,89.2,46.6,29.65,NNE,23,2.0,2.0,23,0.00,,,0.00,540,Wunderground v.1.15,2013-09-01 22:10:00,
2013-09-01 16:20:00,89.5,47.9,29.65,SE,124,1.0,1.0,24,0.00,,,0.00,526,Wunderground v.1.15,2013-09-01 22:20:00,
2013-09-01 16:25:00,89.9,47.1,29.65,ENE,64,1.0,1.0,23,0.00,,,0.00,517,Wunderground v.1.15,2013-09-01 22:25:00,
2013-09-01 16:30:00,90.2,47.4,29.65,ENE,62,1.0,2.0,23,0.00,,,0.00,517,Wunderground v.1.15,2013-09-01 22:30:00,
2013-09-01 16:40:00,90.1,47.3,29.65,ENE,62,1.0,1.0,23,0.00,,,0.00,459,Wunderground v.1.15,2013-09-01 22:40:00,
2013-09-01 16:45:00,90.2,47.4,29.65,NE,37,1.0,2.0,23,0.00,,,0.00,429,Wunderground v.1.15,2013-09-01 22:45:00,
2013-09-01 16:50:00,90.4,47.6,29.65,NNE,27,1.0,1.0,23,0.00,,,0.00,397,Wunderground v.1.15,2013-09-01 22:50:00,
2013-09-01 17:00:00,90.4,47.6,29.65,North,2,1.0,1.0,23,0.00,,,0.00,366,Wunderground v.1.15,2013-09-01 23:00:00,
2013-09-01 17:05:00,89.6,45.7,29.65,SE,138,1.0,2.0,22,0.00,,,0.00,357,Wunderground v.1.15,2013-09-01 23:05:00,
2013-09-01 17:15:00,89.2,45.4,29.64,East,99,1.0,1.0,22,0.00,,,0.00,350,Wunderground v.1.15,2013-09-01 23:15:00,
2013-09-01 17:20:00,88.8,45.0,29.64,ESE,114,1.0,1.0,22,0.00,,,0.00,338,Wunderground v.1.15,2013-09-01 23:20:00,
2013-09-01 17:30:00,88.8,46.2,29.64,West,274,1.0,2.0,23,0.00,,,0.00,320,Wunderground v.1.15,2013-09-01 23:30:00,
2013-09-01 17:40:00,88.1,44.5,29.64,NNE,19,1.0,2.0,22,0.00,,,0.00,290,Wunderground v.1.15,2013-09-01 23:40:00,
2013-09-01 17:50:00,87.5,45.1,29.64,North,4,1.0,1.0,23,0.00,,,0.00,281,Wunderground v.1.15,2013-09-01 23:50:00,
2013-09-01 17:55:00,87.3,45.0,29.64,ENE,78,1.0,1.0,23,0.00,,,0.00,272,Wunderground v.1.15,2013-09-01 23:55:00,
2013-09-01 18:05:00,87.0,45.8,29.64,NNE,27,1.0,2.0,24,0.00,,,0.00,257,Wunderground v.1.15,2013-09-02 00:05:00,
2013-09-01 18:10:00,86.7,45.6,29.64,NNE,16,1.0,1.0,24,0.00,,,0.00,237,Wunderground v.1.15,2013-09-02 00:10:00,
2013-09-01 18:20:00,85.9,44.9,29.63,East,92,2.0,2.0,24,0.00,,,0.00,207,Wunderground v.1.15,2013-09-02 00:20:00,
2013-09-01 18:30:00,85.8,44.8,29.63,NE,37,1.0,1.0,24,0.00,,,0.00,174,Wunderground v.1.15,2013-09-02 00:30:00,
2013-09-01 18:35:00,86.1,45.1,29.63,NNW,347,1.0,1.0,24,0.00,,,0.00,162,Wunderground v.1.15,2013-09-02 00:35:00,
2013-09-01 18:45:00,86.2,45.2,29.63,NW,317,0.0,1.0,24,0.00,,,0.00,125,Wunderground v.1.15,2013-09-02 00:45:00,
2013-09-01 18:50:00,86.2,46.2,29.63,WSW,238,1.0,2.0,25,0.00,,,0.00,113,Wunderground v.1.15,2013-09-02 00:50:00,
2013-09-01 19:00:00,84.9,45.1,29.63,NW,308,1.0,1.0,25,0.00,,,0.00,39,Wunderground v.1.15,2013-09-02 01:00:00,
2013-09-01 19:10:00,83.2,44.7,29.63,NNW,348,1.0,1.0,26,0.00,,,0.00,33,Wunderground v.1.15,2013-09-02 01:10:00,
2013-09-01 19:20:00,81.9,43.6,29.63,NW,322,1.0,1.0,26,0.00,,,0.00,26,Wunderground v.1.15,2013-09-02 01:20:00,
2013-09-01 19:30:00,80.8,43.7,29.63,North,353,1.0,1.0,27,0.00,,,0.00,21,Wunderground v.1.15,2013-09-02 01:30:00,
2013-09-01 19:40:00,79.7,42.8,29.63,West,270,2.0,5.0,27,0.00,,,0.00,14,Wunderground v.1.15,2013-09-02 01:40:00,
2013-09-01 19:50:00,78.6,42.8,29.63,West,268,6.0,8.0,28,0.00,,,0.00,7,Wunderground v.1.15,2013-09-02 01:50:00,
2013-09-01 20:00:00,77.5,41.8,29.64,West,268,9.0,9.0,28,0.00,,,0.00,0,Wunderground v.1.15,2013-09-02 02:00:00,
2013-09-01 20:05:00,77.2,41.6,29.64,WNW,284,9.0,9.0,28,0.00,,,0.00,0,Wunderground v.1.15,2013-09-02 02:05:00,
2013-09-01 20:10:00,76.9,42.2,29.64,West,278,8.0,9.0,29,0.00,,,0.00,0,Wunderground v.1.15,2013-09-02 02:10:00,
2013-09-01 20:20:00,76.1,42.4,29.64,WNW,291,7.0,8.0,30,0.00,,,0.00,0,Wunderground v.1.15,2013-09-02 02:20:00,
2013-09-01 20:30:00,74.9,42.2,29.64,WNW,285,6.0,6.0,31,0.00,,,0.00,0,Wunderground v.1.15,2013-09-02 02:30:00,
2013-09-01 20:35:00,74.3,41.7,29.64,WNW,299,5.0,6.0,31,0.00,,,0.00,0,Wunderground v.1.15,2013-09-02 02:35:00,
2013-09-01 20:40:00,73.7,42.0,29.64,NW,305,4.0,5.0,32,0.00,,,0.00,0,Wunderground v.1.15,2013-09-02 02:40:00,
2013-09-01 20:50:00,72.5,41.7,29.65,WNW,299,4.0,4.0,33,0.00,,,0.00,0,Wunderground v.1.15,2013-09-02 02:50:00,
2013-09-01 20:55:00,72.2,41.5,29.65,West,271,3.0,5.0,33,0.00,,,0.00,0,Wunderground v.1.15,2013-09-02 02:55:00,
2013-09-01 21:05:00,71.5,40.9,29.65,West,272,3.0,3.0,33,0.00,,,0.00,0,Wunderground v.1.15,2013-09-02 03:05:00,
2013-09-01 21:15:00,71.3,41.5,29.65,West,272,0.0,2.0,34,0.00,,,0.00,0,Wunderground v.1.15,2013-09-02 03:15:00,
2013-09-01 21:20:00,71.0,41.2,29.65,West,272,1.0,5.0,34,0.00,,,0.00,0,Wunderground v.1.15,2013-09-02 03:20:00,
2013-09-01 21:30:00,71.0,41.2,29.65,West,262,2.0,2.0,34,0.00,,,0.00,0,Wunderground v.1.15,2013-09-02 03:30:00,
2013-09-01 21:40:00,70.9,41.1,29.66,West,262,1.0,1.0,34,0.00,,,0.00,0,Wunderground v.1.15,2013-09-02 03:40:00,
2013-09-01 21:45:00,70.6,40.9,29.65,West,262,1.0,1.0,34,0.00,,,0.00,0,Wunderground v.1.15,2013-09-02 03:45:00,
2013-09-01 21:50:00,70.4,41.4,29.66,West,262,1.0,1.0,35,0.00,,,0.00,0,Wunderground v.1.15,2013-09-02 03:50:00,
2013-09-01 22:00:00,70.0,41.1,29.66,West,280,2.0,2.0,35,0.00,,,0.00,0,Wunderground v.1.15,2013-09-02 04:00:00,
2013-09-01 22:05:00,69.8,40.9,29.66,West,280,2.0,2.0,35,0.00,,,0.00,0,Wunderground v.1.15,2013-09-02 04:05:00,
2013-09-01 22:10:00,70.0,41.1,29.66,SSW,197,2.0,2.0,35,0.00,,,0.00,0,Wunderground v.1.15,2013-09-02 04:10:00,
2013-09-01 22:15:00,70.2,41.3,29.66,SSW,197,2.0,2.0,35,0.00,,,0.00,0,Wunderground v.1.15,2013-09-02 04:15:00,
2013-09-01 22:20:00,70.0,41.1,29.66,SSW,213,2.0,3.0,35,0.00,,,0.00,0,Wunderground v.1.15,2013-09-02 04:20:00,
2013-09-01 22:30:00,69.5,40.6,29.65,SW,214,2.0,3.0,35,0.00,,,0.00,0,Wunderground v.1.15,2013-09-02 04:30:00,
2013-09-01 22:35:00,69.3,41.2,29.65,SSW,213,2.0,3.0,36,0.00,,,0.00,0,Wunderground v.1.15,2013-09-02 04:35:00,
2013-09-01 22:40:00,69.1,40.3,29.65,SW,235,3.0,6.0,35,0.00,,,0.00,0,Wunderground v.1.15,2013-09-02 04:40:00,
2013-09-01 22:45:00,69.3,41.2,29.65,WSW,251,3.0,6.0,36,0.00,,,0.00,0,Wunderground v.1.15,2013-09-02 04:45:00,
2013-09-01 22:55:00,69.4,41.3,29.65,WSW,249,2.0,2.0,36,0.00,,,0.00,0,Wunderground v.1.15,2013-09-02 04:55:00,
2013-09-01 23:05:00,69.2,41.1,29.65,WSW,249,2.0,3.0,36,0.00,,,0.00,0,Wunderground v.1.15,2013-09-02 05:05:00,
2013-09-01 23:10:00,68.8,40.7,29.64,WSW,249,2.0,2.0,36,0.00,,,0.00,0,Wunderground v.1.15,2013-09-02 05:10:00,
2013-09-01 23:20:00,69.4,41.3,29.64,WSW,246,2.0,2.0,36,0.00,,,0.00,0,Wunderground v.1.15,2013-09-02 05:20:00,
2013-09-01 23:25:00,69.4,40.5,29.64,WSW,246,2.0,2.0,35,0.00,,,0.00,0,Wunderground v.1.15,2013-09-02 05:25:00,
2013-09-01 23:30:00,69.3,40.5,29.64,WSW,246,1.0,1.0,35,0.00,,,0.00,0,Wunderground v.1.15,2013-09-02 05:30:00,
2013-09-01 23:35:00,69.1,41.0,29.65,WSW,246,1.0,1.0,36,0.00,,,0.00,0,Wunderground v.1.15,2013-09-02 05:35:00,
2013-09-01 23:45:00,68.5,40.5,29.64,WSW,246,0.0,2.0,36,0.00,,,0.00,0,Wunderground v.1.15,2013-09-02 05:45:00,
2013-09-01 23:50:00,68.2,40.9,29.64,WSW,246,1.0,2.0,37,0.00,,,0.00,0,Wunderground v.1.15,2013-09-02 05:50:00,